Dewpoint
71 69 70 70 70 71 72 67 54 57 53 50 51 52 49 55 54 54 56 57 55 59 61 58 57 57 59 56 55 59 59 53 53 46 43 54 68 70 70 72 73 73 73 74 75 75 75 76 75 75 75 75 76 76 75 75 75 75 75 75 76 76 76 76 76 75 75 75 75 75 75 75 75 75 75 74 74 74 74 74 75 75 75 75 75 75 75 75 75 75 76 76 75 75 75 75 76
67 72 74 74 71 70 64 66 57 52 51 49 50 53 50 53 53 53 54 55 56 56 57 57 59 61 61 60 59 56 57 62 62 60 65 68 69 69 71 73 73 73 74 75 75 75 75 76 75 75 75 75 76 75 75 75 75 75 75 75 75 75 76 75 75 75 75 75 75 75 76 75 75 75 75 75 74 74 75 75 75 75 75 75 75 75 75 76 75 76 76 75 75 75 75 75 75
68 70 74 73 72 70 67 66 52 50 48 47 49 51 53 53 53 55 57 58 57 56 58 60 61 61 60 59 55 57 54 63 64 65 66 68 67 68 71 73 73 73 73 75 75 75 75 75 75 75 75 75 76 75 75 75 75 75 75 75 75 76 76 75 75 75 75 75 75 75 75 75 75 75 75 75 75 75 75 75 75 75 75 75 75 75 75 76 75 76 75 76 76 75 75 75 75
73 77 74 71 66 70 61 59 55 51 49 48 48 52 53 53 54 56 58 58 58 58 58 58 57 62 58 57 58 60 61 62 65 65 65 66 66 69 71 72 74 74 74 74 75 75 75 75 75 76 76 76 75 75 75 75 75 75 75 75 75 75 76 76 75 76 75 75 75 75 76 76 76 75 74 75 75 75 75 75 75 75 75 76 76 76 75 76 76 75 76 76 75 75 76 75 75
74 76 76 72 66 60 60 57 56 53 48 49 48 52 54 54 55 57 57 58 58 57 58 58 58 60 62 59 59 57 59 64 65 66 66 68 69 70 71 72 73 73 74 74 75 75 75 76 76 76 75 76 75 75 75 75 75 75 74 74 75 75 75 75 75 75 75 75 75 75 76 75 75 75 74 75 75 75 75 75 75 75 75 75 76 75 76 76 75 76 76 75 75 76 76 75 75
74 75 75 73 65 67 63 56 53 52 53 54 51 51 53 55 56 57 58 58 59 59 61 59 57 56 57 59 61 61 63 61 65 66 67 68 69 71 71 73 72 73 73 74 74 74 75 76 76 75 75 75 75 75 75 75 75 75 74 74 74 74 75 75 75 75 75 75 75 75 75 75 75 75 75 75 75 75 75 75 75 75 76 76 76 76 76 76 75 75 75 74 75 75 75 75 75
72 72 70 70 68 68 58 55 54 54 57 58 52 52 54 56 57 57 56 56 57 58 58 58 58 57 57 60 61 63 64 65 64 66 68 69 69 70 71 72 73 73 73 74 74 74 75 75 76 75 76 75 75 75 75 75 75 74 74 74 74 75 74 75 75 75 75 75 75 75 75 74 75 76 75 75 75 76 76 76 76 75 75 75 76 76 75 75 75 75 75 75 74 74 75 74 74
75 69 66 62 60 62 58 57 57 57 55 59 60 53 56 57 57 56 56 55 55 57 58 57 58 58 58 60 59 63 64 65 66 68 69 69 69 69 71 72 72 73 73 73 74 74 75 75 75 75 75 75 75 75 75 75 75 74 74 75 74 74 75 75 74 75 75 75 75 75 75 74 75 75 75 75 75 75 75 76 76 75 75 75 76 75 75 75 75 75 74 75 75 75 75 74 74
71 70 69 62 59 60 58 56 57 61 61 61 60 63 60 58 57 56 55 57 55 58 56 57 57 55 58 60 60 63 65 66 68 69 69 68 69 71 72 72 72 73 73 73 74 75 75 74 75 75 75 75 75 75 75 75 75 75 75 75 74 74 74 74 74 75 74 74 75 75 74 74 75 75 75 75 75 75 75 75 75 75 75 75 75 75 75 75 75 74 75 75 75 74 74 74 74
69 67 60 61 60 56 56 55 55 57 58 61 57 58 59 59 57 57 56 56 57 57 59 58 58 58 60 60 61 63 65 67 68 67 68 69 70 71 71 72 72 73 73 73 74 74 74 75 75 75 74 75 75 74 74 74 74 74 74 74 73 74 74 74 74 74 74 74 75 75 74 74 74 74 75 75 75 75 75 75 75 75 75 75 75 75 75 74 75 75 75 74 74 74 74 74 74
63 66 65 57 54 55 54 55 57 59 58 62 58 61 62 59 57 57 57 57 58 57 58 59 58 59 59 60 62 65 67 67 67 67 69 70 71 71 71 72 73 73 73 73 74 74 74 75 75 75 74 74 73 73 73 73 73 73 73 74 73 74 74 74 74 74 74 74 74 75 74 74 73 73 74 74 75 75 75 75 75 75 75 75 75 74 74 75 75 75 75 75 74 74 73 74 75
62 61 61 56 56 55 57 55 57 58 59 58 56 61 62 58 58 56 57 56 57 57 57 58 58 60 59 60 62 65 66 66 67 69 70 71 71 71 72 72 72 73 73 74 74 74 75 75 75 74 73 73 73 73 73 73 73 74 73 73 74 74 74 74 74 74 74 74 74 74 74 74 74 74 74 74 74 75 75 74 75 75 75 75 75 75 75 75 76 75 75 75 75 75 75 74 74
63 63 59 58 57 59 59 57 56 58 54 55 56 61 58 57 57 57 57 57 57 56 56 60 60 60 59 60 63 65 65 66 68 70 70 70 71 71 71 72 72 73 73 74 74 74 74 74 74 74 73 73 72 73 73 73 73 74 73 74 73 73 73 74 74 74 74 74 74 74 74 75 74 74 74 74 75 75 75 74 74 74 75 74 74 75 75 75 75 75 75 75 75 74 74 74 73
63 63 61 57 62 60 58 57 58 52 52 55 62 62 61 57 58 58 57 57 57 57 58 60 59 61 60 62 63 63 64 67 68 69 70 70 70 70 71 71 72 73 73 73 74 74 74 75 74 74 73 73 73 73 73 74 74 74 73 73 73 73 73 73 74 74 74 74 74 74 74 74 74 74 74 74 75 75 75 75 75 74 75 75 75 75 75 75 75 75 75 75 75 75 74 74 75
64 66 61 58 57 58 59 56 56 52 52 59 63 61 61 64 59 58 57 56 57 59 59 60 61 59 59 60 61 62 65 67 68 69 69 69 70 71 71 71 72 72 73 73 74 74 74 74 74 74 74 72 72 73 73 73 74 74 73 73 73 73 74 74 74 74 74 75 75 75 74 75 74 74 74 74 74 74 74 74 75 75 75 74 74 75 75 75 75 75 75 75 75 75 75 74 74
67 65 62 57 55 56 57 58 60 54 54 63 64 61 59 61 61 58 59 58 58 58 58 58 60 60 60 60 61 63 66 67 68 69 69 70 70 70 71 71 71 72 72 73 73 73 73 73 73 73 72 71 72 72 73 73 73 74 73 73 73 73 74 74 74 74 74 74 74 75 74 74 74 74 74 74 75 74 74 74 74 74 74 75 75 75 75 75 75 74 75 74 74 74 74 73 73
69 65 58 56 55 57 58 58 58 52 58 62 65 58 56 57 63 62 64 61 57 57 61 59 60 61 60 60 63 65 67 68 69 69 69 69 69 69 70 70 71 71 72 72 72 73 73 73 73 73 73 72 72 72 72 72 74 74 73 73 73 74 73 74 74 74 74 74 74 74 74 74 73 73 74 73 74 74 74 74 74 74 74 75 75 75 75 75 75 76 75 74 73 73 73 72 73
66 59 58 55 57 57 60 59 60 62 59 61 62 61 57 56 60 60 59 58 58 58 57 59 60 60 62 64 65 66 67 68 68 68 68 68 69 69 69 70 70 70 71 71 72 73 72 72 72 73 73 72 73 72 72 72 73 73 73 74 74 73 73 74 73 74 74 74 74 74 73 74 73 73 74 76 75 75 74 74 74 74 74 75 75 75 75 75 76 76 76 75 76 75 75 73 74
62 59 58 54 58 59 62 64 62 62 59 63 64 62 59 59 57 59 56 56 56 55 57 58 59 61 63 64 65 66 67 67 67 68 68 68 68 68 69 69 70 70 70 71 72 72 72 72 73 72 73 73 73 72 73 73 72 72 73 73 73 74 74 74 74 74 72 73 73 73 74 73 73 74 75 75 76 74 74 74 74 74 75 75 75 75 75 75 75 75 74 74 75 77 73 72 73
65 58 56 57 62 62 63 64 65 66 66 63 62 64 61 62 57 59 55 54 56 56 56 58 59 61 62 64 65 66 66 66 67 67 67 67 68 68 68 69 69 70 70 71 72 72 71 71 72 72 73 73 73 72 72 73 73 73 73 72 72 73 73 73 73 73 73 73 73 73 73 73 73 74 75 74 76 74 74 74 75 75 75 75 75 77 76 75 74 76 76 76 76 75 73 72 73
65 61 58 59 64 62 64 65 65 66 68 64 63 64 61 63 58 56 55 53 55 57 58 58 58 60 62 63 64 65 65 65 66 66 67 67 68 68 69 69 69 70 71 72 72 71 71 71 72 72 73 73 73 72 72 72 73 73 73 73 73 73 73 73 73 73 73 73 73 73 73 74 73 73 73 73 73 73 73 74 74 74 73 73 76 71 72 72 73 71 72 74 71 73 72 72 72
63 62 64 64 63 63 65 64 66 66 64 63 62 61 61 65 62 56 54 52 52 56 57 59 59 61 62 62 63 64 64 64 65 65 66 66 67 67 69 69 70 70 72 71 71 71 71 71 72 72 73 73 73 72 73 73 73 72 72 73 73 73 73 73 72 73 73 73 73 74 74 73 73 73 73 73 73 73 73 72 72 73 72 73 75 71 71 72 72 72 72 73 73 72 73 73 72
59 63 63 64 64 63 65 65 66 66 64 63 61 62 64 64 61 56 54 53 55 60 58 59 59 61 62 62 62 63 63 63 64 64 65 66 67 68 68 69 69 70 71 71 71 71 71 72 72 72 72 72 72 73 73 73 72 72 73 73 73 73 73 72 72 72 72 72 73 73 73 72 72 72 72 72 72 72 72 72 72 72 72 72 75 74 72 72 73 72 72 73 73 74 74 74 73
63 62 62 63 64 63 65 65 67 66 63 63 64 65 62 62 56 61 54 58 59 59 59 59 59 60 62 61 62 62 62 63 63 64 65 66 67 67 68 69 69 70 70 71 71 72 72 72 72 73 72 72 72 73 72 72 72 73 73 74 73 74 73 72 72 72 73 72 73 73 73 72 72 72 72 72 72 72 72 72 72 72 73 73 73 74 73 73 73 73 73 73 73 73 74 73 73
62 61 63 63 64 65 66 66 66 66 66 66 64 60 60 63 60 59 56 58 58 58 59 59 59 60 61 61 61 62 62 62 62 63 65 66 66 68 68 69 69 70 70 70 71 71 72 72 73 72 72 72 72 72 72 72 72 72 74 73 73 75 72 72 72 73 72 73 73 73 73 72 71 71 71 71 72 72 72 72 72 73 73 73 73 73 73 73 73 73 73 73 73 73 73 72 72
63 62 63 63 64 65 66 65 65 66 65 66 63 62 63 64 65 56 58 57 58 58 58 58 58 59 60 61 61 62 62 62 62 63 64 65 66 67 68 68 69 69 70 70 71 71 72 73 72 72 72 72 72 72 71 72 72 72 73 73 73 74 73 73 73 72 72 72 72 72 73 72 72 71 71 71 71 72 72 72 73 73 73 73 73 73 73 73 73 72 72 73 72 72 72 71 73
63 62 62 63 64 64 65 64 65 65 64 64 63 61 61 63 60 52 58 57 57 57 57 58 57 58 59 60 61 61 62 62 62 63 64 65 67 67 68 68 69 69 70 70 71 71 73 72 72 72 72 73 72 71 71 72 72 72 73 73 73 73 73 74 73 73 73 73 72 72 73 73 72 72 72 72 72 72 71 71 72 72 72 73 73 73 73 73 72 72 72 73 72 72 73 72 73
63 62 62 63 64 64 64 64 64 65 63 64 63 61 63 62 59 53 56 57 57 57 57 57 57 58 59 59 60 61 61 62 62 62 63 65 66 67 68 68 68 69 69 70 71 71 72 72 72 72 72 73 73 72 73 72 72 72 74 73 73 73 73 73 72 73 74 72 73 73 72 72 74 72 72 72 72 72 71 72 72 72 72 72 73 72 72 73 74 74 74 74 74 74 73 72 71
63 63 59 60 63 62 64 62 64 65 63 64 64 59 57 59 56 56 56 58 57 57 56 56 57 57 58 58 59 60 60 61 62 62 64 65 66 67 67 68 68 68 69 70 71 71 71 71 72 72 72 74 72 71 72 72 72 73 73 73 73 74 73 73 72 72 72 72 72 73 73 73 74 72 72 72 74 72 72 72 72 73 72 72 73 75 74 72 72 72 71 74 73 73 72 71 73
63 62 60 60 60 59 62 64 64 63 63 64 63 52 55 58 59 60 59 57 56 57 55 56 56 57 57 58 58 58 59 59 61 62 64 65 66 67 67 68 69 69 70 70 70 70 71 71 72 72 73 73 72 71 72 72 72 73 73 73 74 73 73 72 72 72 72 72 73 73 73 73 74 73 72 72 72 72 72 72 71 71 72 74 75 74 72 72 71 71 72 73 75 74 72 72 72
60 60 61 56 57 56 62 63 64 62 65 67 65 54 55 58 59 62 60 57 55 54 55 55 56 56 56 57 57 57 57 58 61 62 64 65 66 67 68 68 69 69 70 70 70 69 70 71 71 72 73 72 72 71 72 71 72 73 72 72 73 73 73 72 73 72 72 72 72 72 73 73 74 73 73 72 72 72 71 71 72 72 73 76 75 75 74 73 72 72 74 72 71 71 72 74 72
61 54 53 56 56 57 61 64 64 61 64 66 63 54 55 56 57 62 60 57 55 54 54 54 55 55 55 55 56 56 56 58 61 62 63 65 66 67 67 68 68 68 69 70 69 69 69 70 71 71 72 71 71 71 71 71 72 71 71 74 72 72 73 72 72 72 72 72 73 72 72 73 74 73 73 73 72 72 71 71 72 73 75 76 75 74 74 72 72 73 75 74 70 71 73 72 72
57 54 52 54 57 58 59 62 63 64 64 64 63 55 56 56 60 60 59 57 56 54 53 53 54 54 54 54 55 55 55 56 60 62 63 64 65 66 67 68 67 68 68 69 69 68 68 69 71 71 71 70 71 71 70 71 72 71 71 72 71 72 72 72 71 71 72 73 73 72 72 73 73 73 74 74 72 71 71 71 72 74 76 74 74 73 73 74 72 73 72 75 71 71 71 72 72
52 55 52 56 56 57 56 61 63 65 64 61 62 58 58 59 59 57 58 57 56 53 53 53 53 53 53 54 54 54 55 55 58 60 62 64 64 66 67 69 67 68 68 69 69 69 69 69 70 71 70 70 70 70 70 71 71 71 70 71 72 70 71 71 71 71 72 72 73 73 73 73 75 74 76 75 73 72 72 72 73 75 75 74 74 73 71 72 72 72 71 73 74 73 72 71 71
52 52 53 54 57 56 56 57 60 64 63 61 61 60 60 60 60 56 56 57 55 53 53 53 52 52 52 53 53 53 54 54 56 59 61 62 64 66 66 67 67 67 68 68 69 69 70 70 70 72 70 69 70 70 70 71 71 70 70 70 71 70 70 70 70 71 71 73 74 74 75 75 76 75 76 76 73 73 73 73 73 75 75 74 74 72 71 73 74 72 72 73 74 74 72 71 72
52 53 54 54 55 55 56 58 63 62 62 59 59 57 58 59 61 62 61 61 55 53 53 53 52 52 52 53 53 53 54 54 55 58 60 61 63 65 66 67 67 67 68 68 69 69 70 70 70 71 70 69 69 70 70 69 70 70 68 69 69 70 69 70 70 70 71 73 74 75 75 75 76 76 76 75 74 74 73 73 74 76 75 74 73 72 71 70 70 71 72 75 74 72 73 73 72
53 54 55 55 55 57 59 61 63 64 60 60 60 59 58 58 60 61 64 63 58 53 52 52 52 53 52 52 52 53 53 53 55 57 59 61 63 64 65 66 66 67 67 68 68 68 69 69 70 70 69 69 69 69 69 68 68 68 68 68 68 68 68 68 70 70 71 73 74 75 75 76 75 76 76 74 74 75 73 74 74 75 75 74 73 72 72 72 72 72 74 75 74 70 70 72 71
53 54 54 54 54 55 59 61 63 65 60 58 60 59 58 58 60 61 63 59 57 52 51 51 51 53 52 52 52 52 53 54 55 58 60 61 62 64 65 65 67 66 67 68 67 68 68 69 69 69 70 70 69 69 69 68 68 68 67 67 67 68 68 69 69 70 71 73 74 74 75 75 75 76 76 75 75 75 74 74 74 74 74 75 74 74 73 76 75 74 74 73 73 71 69 72 72
53 53 54 54 55 59 61 62 61 62 60 58 58 58 59 60 61 63 62 62 62 63 56 51 51 52 53 52 52 52 52 53 55 58 60 61 62 63 63 64 65 66 66 67 67 67 68 69 69 70 70 70 70 69 69 68 69 69 67 68 68 68 69 69 69 70 73 73 74 75 75 75 75 75 76 77 75 74 74 73 73 73 74 75 76 74 74 74 74 73 74 72 71 72 73 74 73
52 54 53 52 56 54 52 59 59 59 59 58 58 58 58 61 62 62 64 63 64 65 65 64 58 54 53 52 52 52 52 53 55 59 60 61 62 62 62 63 64 65 66 66 66 67 68 69 69 70 70 70 70 69 70 68 70 69 68 68 69 69 69 72 71 72 73 74 74 75 75 75 75 75 76 76 75 75 74 73 73 74 74 76 74 72 72 74 73 73 74 75 71 69 70 71 75
52 53 53 54 57 54 54 56 58 59 59 60 58 57 55 58 58 59 63 65 64 64 66 65 64 63 62 60 57 53 52 53 56 59 60 60 61 61 62 63 63 64 65 65 66 67 68 68 69 70 70 70 70 71 70 70 73 70 70 70 72 71 72 71 71 71 73 74 74 74 74 75 75 75 76 76 76 75 75 74 74 74 73 75 74 72 72 73 73 73 73 74 73 70 69 71 71
50 53 53 54 57 57 58 58 57 56 54 57 56 50 51 56 57 58 60 63 62 64 62 63 62 62 63 61 56 55 55 54 57 59 60 60 61 61 62 63 63 63 64 65 66 67 68 68 69 70 70 70 70 71 70 71 72 69 69 69 68 67 68 70 70 70 72 73 73 74 74 75 76 75 76 76 76 75 75 75 74 75 75 75 75 74 73 73 72 72 73 73 73 73 70 69 69
48 49 53 55 56 58 58 57 56 52 51 55 57 49 47 55 55 57 59 60 60 63 63 62 61 61 62 62 59 54 54 55 57 59 60 60 61 61 62 62 63 63 64 65 66 67 68 69 69 70 70 70 70 71 71 73 70 70 69 68 67 67 67 68 70 71 72 73 74 74 74 75 75 75 75 75 76 76 75 74 74 75 75 74 76 74 73 73 73 73 75 73 73 75 71 69 70
45 42 53 57 57 58 57 57 55 52 58 57 56 55 48 50 54 57 58 58 58 60 61 62 62 61 61 62 61 56 54 55 57 59 59 60 61 61 62 62 62 63 64 65 66 67 68 69 69 69 70 71 70 70 71 72 70 69 69 68 69 68 67 68 69 71 72 74 73 74 74 74 75 75 74 74 76 76 75 74 75 74 74 75 76 76 74 73 74 74 76 74 76 75 71 70 70
37 44 56 56 57 57 57 56 53 54 54 51 55 56 48 48 54 58 58 57 57 57 59 60 62 62 62 62 62 57 55 56 57 58 59 60 60 61 62 62 63 63 64 65 65 67 68 69 70 69 69 70 70 70 71 71 71 69 69 69 69 69 68 68 70 73 72 74 73 73 73 73 73 74 74 74 75 76 77 75 75 74 74 74 77 76 76 75 73 74 74 73 73 74 74 72 71
41 57 58 58 57 56 56 53 52 51 50 49 53 55 46 47 55 56 58 57 56 56 57 58 60 61 62 62 62 59 55 56 58 59 59 60 61 62 63 63 63 63 64 65 65 67 68 69 69 69 69 70 70 70 71 71 71 71 69 69 69 69 70 70 71 71 71 72 72 72 72 72 73 73 74 74 75 75 76 76 75 75 74 74 76 75 74 73 73 74 73 73 73 73 73 74 73
57 57 55 55 55 55 54 52 49 45 40 46 53 54 50 44 52 54 55 55 56 55 55 57 59 61 61 61 62 61 56 56 57 59 59 60 61 62 63 63 63 63 65 65 65 67 68 69 69 69 69 69 70 70 71 70 71 71 70 70 69 69 70 70 70 71 71 71 71 72 72 72 72 73 74 75 74 75 75 76 76 75 75 76 77 74 73 74 74 74 74 74 74 73 71 72 74
55 53 53 51 52 49 49 48 49 39 37 41 48 54 53 45 48 55 55 54 55 53 52 54 56 59 60 61 61 61 57 55 57 58 59 60 61 63 63 63 63 64 65 65 66 67 68 68 69 69 69 69 69 70 71 71 71 71 70 71 70 70 70 70 70 70 70 71 71 71 72 71 72 73 73 74 74 74 75 75 76 75 76 75 75 74 73 74 74 74 74 73 73 73 73 75 72
53 51 49 46 44 44 43 45 41 39 37 47 50 53 51 50 50 53 55 55 55 53 51 53 56 58 59 60 60 61 58 55 56 58 59 60 61 62 63 63 64 65 65 66 66 67 68 68 68 68 69 69 69 70 71 71 71 71 71 71 70 70 71 70 70 70 70 71 71 71 71 71 71 72 72 73 74 74 74 74 74 74 74 75 75 74 74 74 74 74 75 75 74 73 73 74 71
50 48 46 45 42 38 35 37 38 38 42 53 51 53 48 50 49 52 53 56 56 56 54 54 57 58 59 59 60 61 58 56 55 57 58 59 61 62 63 64 64 65 65 66 66 67 68 68 68 68 69 69 69 70 71 71 71 71 71 71 70 71 70 70 70 70 70 70 70 70 71 71 72 72 72 73 74 74 75 74 75 74 74 74 75 75 74 75 74 74 75 73 74 73 74 74 73
49 48 45 45 44 39 35 35 36 38 41 50 53 46 44 45 45 55 55 55 56 57 57 57 58 59 59 59 60 60 59 56 56 56 58 59 61 63 63 64 64 65 65 66 66 67 68 68 68 68 69 69 69 70 70 70 71 71 71 71 70 71 70 70 70 70 71 70 71 70 71 72 72 72 73 73 74 74 74 74 74 74 74 75 75 75 76 75 75 75 76 73 74 74 74 75 74
29 36 40 45 44 39 37 36 38 42 47 48 48 46 48 48 51 56 59 58 57 58 58 58 58 59 59 59 60 60 59 58 56 57 58 59 61 63 63 64 64 65 66 66 67 67 67 68 68 68 68 69 69 70 70 70 70 71 71 70 71 71 72 71 71 72 71 71 71 71 71 72 72 72 73 74 73 74 73 74 74 75 74 75 76 75 75 75 75 75 74 75 74 78 74 74 73
22 32 32 36 37 32 34 42 43 44 44 44 49 47 48 50 49 54 58 58 58 58 58 58 58 59 59 58 59 60 59 58 57 58 58 59 61 62 63 63 64 65 66 66 67 68 68 68 68 68 68 69 69 70 70 70 70 70 71 70 71 71 72 70 70 70 71 72 72 72 72 72 72 72 72 74 73 73 73 73 73 74 74 75 75 76 76 75 74 75 74 73 74 74 75 73 73
16 23 24 25 27 28 26 27 30 34 35 36 46 46 45 44 41 54 56 57 57 57 58 58 59 59 58 58 59 60 59 58 58 58 59 60 61 62 63 64 64 65 66 66 68 68 68 68 68 68 69 69 69 69 70 70 70 70 70 70 70 71 71 71 70 70 71 72 72 73 73 73 73 73 73 73 73 73 73 76 73 74 74 75 76 76 76 75 74 75 74 74 74 73 73 74 75
15 25 17 13 18 19 25 30 23 23 27 34 40 44 46 46 45 53 55 55 57 57 57 58 59 59 59 58 59 61 61 59 59 59 60 61 61 62 63 64 64 65 66 66 68 69 69 69 69 68 68 69 69 69 70 70 70 70 70 70 70 71 72 72 71 71 71 71 72 73 73 73 74 74 74 74 74 73 73 73 73 73 74 75 75 75 75 75 74 74 75 74 74 74 73 73 73
15 16 12 19 24 25 21 21 27 26 24 31 34 40 38 48 49 57 57 56 57 57 57 57 59 60 60 60 59 60 61 60 59 59 60 61 61 62 63 63 64 64 66 67 68 69 69 69 69 69 69 69 69 69 70 70 70 70 70 71 71 71 72 72 71 71 71 71 72 72 73 72 73 74 74 73 74 73 73 72 73 73 74 74 75 75 75 75 74 74 74 75 74 74 74 73 74
13 11 10 12 22 22 17 27 24 23 29 33 33 32 38 49 58 59 60 60 58 58 57 58 59 60 60 60 60 60 61 62 61 60 61 62 63 63 63 63 64 65 67 67 68 69 69 69 69 69 69 69 69 69 70 70 70 70 71 70 70 71 72 72 72 72 71 71 72 72 72 72 73 73 73 73 73 73 73 72 72 73 73 74 74 74 75 75 74 74 74 74 73 73 74 74 74
11 11 12 10 9 12 11 15 22 31 29 28 32 32 39 52 60 60 60 61 59 59 58 58 59 60 60 60 60 61 62 64 65 65 64 64 65 64 65 65 64 64 66 67 68 69 69 70 70 70 69 70 70 70 70 70 70 70 70 71 71 71 71 72 72 71 72 71 71 72 72 73 72 72 72 72 72 73 72 72 72 72 73 74 74 74 74 74 74 74 74 74 74 73 73 73 73